| time (UTC) | temp F | wind direction | speed MPH | gust MPH | rain 1hr in | rain 24hr in | rain mn in | humidity % | barometer mb |
| 20260505121346 | 52 | 345 | 4.0 | 12.0 | 0.00 | 0.44 | 0.08 | 71 | 1014.4 |
| 20260505120312 | 52 | 345 | 6.0 | 13.0 | 0.00 | 0.44 | 0.08 | 71 | 1014.2 |
| 20260505115317 | 52 | 345 | 6.0 | 11.0 | 0.00 | 0.44 | 0.08 | 71 | 1014.2 |
| 20260505114326 | 52 | 345 | 5.0 | 12.0 | 0.00 | 0.44 | 0.08 | 71 | 1014.1 |
| 20260505113330 | 52 | 345 | 3.0 | 10.0 | 0.00 | 0.44 | 0.08 | 71 | 1014.1 |
| 20260505111326 | 52 | 345 | 7.0 | 12.0 | 0.00 | 0.44 | 0.08 | 71 | 1014.1 |
| 20260505110327 | 52 | 345 | 5.0 | 10.0 | 0.00 | 0.44 | 0.08 | 71 | 1014.2 |
| 20260505101322 | 51 | 345 | 4.0 | 10.0 | 0.00 | 0.44 | 0.08 | 72 | 1014.4 |
| 20260505100330 | 51 | 345 | 3.0 | 6.0 | 0.00 | 0.44 | 0.08 | 72 | 1014.6 |
| 20260505095319 | 51 | 345 | 4.0 | 8.0 | 0.00 | 0.44 | 0.08 | 72 | 1014.6 |
| 20260505094326 | 51 | 345 | 5.0 | 8.0 | 0.01 | 0.44 | 0.08 | 72 | 1014.4 |
| 20260505093329 | 51 | 345 | 5.0 | 8.0 | 0.01 | 0.44 | 0.08 | 72 | 1014.5 |
| 20260505092353 | 51 | 345 | 2.0 | 8.0 | 0.01 | 0.44 | 0.08 | 72 | 1014.5 |
| 20260505091324 | 51 | 345 | 2.0 | 8.0 | 0.02 | 0.44 | 0.08 | 72 | 1014.7 |
| 20260505090325 | 51 | 345 | 4.0 | 5.0 | 0.04 | 0.44 | 0.08 | 72 | 1014.7 |
| 20260505085334 | 51 | 345 | 3.0 | 6.0 | 0.04 | 0.44 | 0.08 | 71 | 1015.1 |
| 20260505084341 | 51 | 345 | 4.0 | 9.0 | 0.03 | 0.43 | 0.07 | 71 | 1015.0 |
| 20260505083347 | 51 | 345 | 5.0 | 10.0 | 0.04 | 0.43 | 0.07 | 71 | 1015.0 |
| 20260505082333 | 51 | 345 | 3.0 | 6.0 | 0.04 | 0.43 | 0.07 | 71 | 1015.0 |
| 20260505081328 | 51 | 345 | 3.0 | 9.0 | 0.04 | 0.42 | 0.06 | 71 | 1015.2 |
| 20260505080326 | 51 | 345 | 3.0 | 6.0 | 0.04 | 0.40 | 0.04 | 71 | 1015.1 |
| 20260505075318 | 51 | 345 | 3.0 | 5.0 | 0.04 | 0.40 | 0.04 | 71 | 1015.0 |
| 20260505074324 | 51 | 345 | 2.0 | 6.0 | 0.04 | 0.40 | 0.04 | 71 | 1015.2 |
| 20260505073313 | 51 | 345 | 2.0 | 9.0 | 0.04 | 0.39 | 0.03 | 70 | 1015.1 |
| 20260505072320 | 51 | 345 | 4.0 | 8.0 | 0.05 | 0.39 | 0.03 | 70 | 1015.3 |
| 20260505071322 | 51 | 345 | 4.0 | 6.0 | 0.05 | 0.38 | 0.02 | 70 | 1015.4 |
| 20260505070351 | 51 | 345 | 2.0 | 6.0 | 0.05 | 0.36 | 0.00 | 70 | 1015.3 |
| 20260505065324 | 51 | 345 | 2.0 | 5.0 | 0.06 | 0.36 | 0.00 | 70 | 1015.5 |
| 20260505064342 | 51 | 345 | 4.0 | 10.0 | 0.06 | 0.36 | 0.36 | 70 | 1015.4 |
| 20260505063321 | 51 | 345 | 4.0 | 8.0 | 0.05 | 0.35 | 0.35 | 70 | 1015.3 |
| 20260505062332 | 51 | 345 | 4.0 | 8.0 | 0.04 | 0.34 | 0.34 | 70 | 1015.0 |
| 20260505061320 | 51 | 345 | 5.0 | 10.0 | 0.04 | 0.33 | 0.33 | 70 | 1015.4 |
| 20260505060325 | 51 | 345 | 5.0 | 10.0 | 0.02 | 0.31 | 0.31 | 70 | 1015.4 |
| 20260505055319 | 50 | 345 | 7.0 | 11.0 | 0.02 | 0.30 | 0.30 | 70 | 1015.3 |
| 20260505054326 | 50 | 345 | 5.0 | 10.0 | 0.03 | 0.30 | 0.30 | 70 | 1015.3 |
| 20260505053335 | 50 | 345 | 5.0 | 13.0 | 0.05 | 0.30 | 0.30 | 70 | 1015.5 |
| 20260505052329 | 50 | 345 | 8.0 | 13.0 | 0.08 | 0.30 | 0.30 | 70 | 1015.6 |
| 20260505051339 | 50 | 345 | 6.0 | 12.0 | 0.11 | 0.29 | 0.29 | 70 | 1015.4 |
| 20260505050325 | 50 | 345 | 5.0 | 12.0 | 0.12 | 0.29 | 0.29 | 70 | 1015.5 |
| 20260505040342 | 50 | 345 | 3.0 | 6.0 | 0.04 | 0.17 | 0.17 | 70 | 1016.2 |
| 20260505035329 | 50 | 345 | 3.0 | 8.0 | 0.03 | 0.16 | 0.16 | 71 | 1015.9 |
| 20260505034326 | 50 | 345 | 4.0 | 9.0 | 0.03 | 0.16 | 0.16 | 71 | 1015.0 |
| 20260505033322 | 50 | 345 | 5.0 | 12.0 | 0.04 | 0.16 | 0.16 | 71 | 1014.6 |
| 20260505032338 | 50 | 345 | 4.0 | 9.0 | 0.05 | 0.15 | 0.15 | 71 | 1014.6 |
| 20260505031348 | 51 | 345 | 4.0 | 10.0 | 0.04 | 0.14 | 0.14 | 71 | 1014.6 |
| 20260505030311 | 51 | 345 | 3.0 | 8.0 | 0.03 | 0.13 | 0.13 | 71 | 1014.6 |
| 20260505025322 | 51 | 345 | 3.0 | 8.0 | 0.04 | 0.13 | 0.13 | 71 | 1014.9 |
| 20260505024338 | 52 | 345 | 3.0 | 10.0 | 0.05 | 0.13 | 0.13 | 71 | 1015.0 |
| 20260505023319 | 52 | 345 | 5.0 | 13.0 | 0.05 | 0.12 | 0.12 | 71 | 1014.9 |
| 20260505022334 | 52 | 345 | 6.0 | 13.0 | 0.03 | 0.10 | 0.10 | 71 | 1015.2 |
| 20260505021321 | 52 | 345 | 7.0 | 12.0 | 0.03 | 0.10 | 0.10 | 71 | 1015.0 |
| 20260505020325 | 52 | 345 | 7.0 | 13.0 | 0.04 | 0.10 | 0.10 | 71 | 1014.9 |
| 20260505015319 | 52 | 345 | 6.0 | 12.0 | 0.03 | 0.09 | 0.09 | 71 | 1015.0 |
| 20260505014325 | 52 | 345 | 7.0 | 13.0 | 0.03 | 0.08 | 0.08 | 71 | 1015.2 |
| 20260505013352 | 52 | 345 | 6.0 | 12.0 | 0.03 | 0.07 | 0.07 | 71 | 1015.2 |
| 20260505012320 | 53 | 345 | 4.0 | 9.0 | 0.03 | 0.07 | 0.07 | 71 | 1015.4 |
| 20260505011327 | 53 | 345 | 4.0 | 10.0 | 0.03 | 0.07 | 0.07 | 72 | 1015.4 |
| 20260505010336 | 53 | 345 | 4.0 | 8.0 | 0.03 | 0.06 | 0.06 | 72 | 1015.4 |
| 20260505005325 | 53 | 345 | 5.0 | 10.0 | 0.04 | 0.06 | 0.06 | 72 | 1015.4 |
| 20260505004314 | 53 | 345 | 5.0 | 12.0 | 0.03 | 0.05 | 0.05 | 72 | 1015.5 |
| 20260505003316 | 53 | 345 | 4.0 | 9.0 | 0.03 | 0.04 | 0.04 | 73 | 1015.6 |
| 20260505002327 | 54 | 345 | 3.0 | 6.0 | 0.03 | 0.04 | 0.04 | 73 | 1015.6 |
| 20260505001331 | 54 | 345 | 4.0 | 9.0 | 0.04 | 0.04 | 0.04 | 74 | 1015.5 |
| 20260505000317 | 54 | 345 | 4.0 | 8.0 | 0.02 | 0.02 | 0.02 | 75 | 1015.5 |
| 20260504235350 | 54 | 345 | 2.0 | 5.0 | 0.02 | 0.02 | 0.02 | 76 | 1015.4 |
| 20260504234321 | 55 | 345 | 1.0 | 6.0 | 0.02 | 0.02 | 0.02 | 77 | 1015.3 |
| 20260504233326 | 55 | 345 | 3.0 | 9.0 | 0.01 | 0.01 | 0.01 | 78 | 1015.2 |
| 20260504232331 | 55 | 296 | 4.0 | 9.0 | 0.01 | 0.01 | 0.01 | 77 | 1015.4 |
| 20260504231319 | 56 | 322 | 5.0 | 11.0 | 0.00 | 0.00 | 0.00 | 76 | 1015.2 |
| 20260504230323 | 57 | 345 | 5.0 | 9.0 | 0.00 | 0.00 | 0.00 | 75 | 1015.0 |
| 20260504225328 | 57 | 345 | 3.0 | 8.0 | 0.00 | 0.00 | 0.00 | 72 | 1015.3 |
| 20260504224316 | 58 | 293 | 4.0 | 9.0 | 0.00 | 0.00 | 0.00 | 70 | 1015.3 |
| 20260504223344 | 58 | 303 | 4.0 | 6.0 | 0.00 | 0.00 | 0.00 | 69 | 1015.4 |
| 20260504222343 | 59 | 295 | 4.0 | 6.0 | 0.00 | 0.00 | 0.00 | 68 | 1015.4 |
| 20260504221318 | 59 | 284 | 4.0 | 9.0 | 0.00 | 0.00 | 0.00 | 67 | 1015.4 |
| 20260504220324 | 60 | 319 | 4.0 | 12.0 | 0.00 | 0.00 | 0.00 | 67 | 1015.3 |
| 20260504215335 | 60 | 266 | 7.0 | 13.0 | 0.00 | 0.00 | 0.00 | 62 | 1015.2 |
| 20260504214332 | 60 | 258 | 6.0 | 10.0 | 0.00 | 0.00 | 0.00 | 57 | 1015.3 |
| 20260504213352 | 60 | 242 | 5.0 | 11.0 | 0.00 | 0.00 | 0.00 | 59 | 1015.2 |
| 20260504212317 | 61 | 251 | 8.0 | 13.0 | 0.00 | 0.00 | 0.00 | 58 | 1015.3 |
| 20260504211322 | 61 | 294 | 8.0 | 12.0 | 0.00 | 0.00 | 0.00 | 57 | 1015.4 |
| 20260504210325 | 61 | 256 | 6.0 | 12.0 | 0.00 | 0.00 | 0.00 | 58 | 1015.3 |
| 20260504205328 | 61 | 306 | 5.0 | 12.0 | 0.00 | 0.00 | 0.00 | 58 | 1015.4 |
| 20260504204320 | 61 | 262 | 6.0 | 17.0 | 0.00 | 0.00 | 0.00 | 59 | 1015.3 |
| 20260504203337 | 61 | 273 | 6.0 | 14.0 | 0.00 | 0.00 | 0.00 | 57 | 1015.1 |
| 20260504202316 | 61 | 241 | 8.0 | 14.0 | 0.00 | 0.00 | 0.00 | 57 | 1015.3 |
| 20260504201322 | 61 | 243 | 6.0 | 11.0 | 0.00 | 0.00 | 0.00 | 60 | 1015.2 |
| 20260504200346 | 61 | 251 | 6.0 | 11.0 | 0.00 | 0.00 | 0.00 | 59 | 1015.2 |
| 20260504195331 | 62 | 9 | 2.0 | 13.0 | 0.00 | 0.00 | 0.00 | 62 | 1015.3 |
| 20260504194334 | 62 | 274 | 6.0 | 10.0 | 0.00 | 0.00 | 0.00 | 61 | 1015.2 |
| 20260504193315 | 62 | 304 | 2.0 | 12.0 | 0.00 | 0.00 | 0.00 | 61 | 1015.2 |
| 20260504192351 | 62 | 302 | 5.0 | 14.0 | 0.00 | 0.00 | 0.00 | 61 | 1015.2 |
| 20260504191320 | 62 | 244 | 7.0 | 12.0 | 0.00 | 0.00 | 0.00 | 60 | 1015.3 |
| 20260504190350 | 61 | 223 | 8.0 | 16.0 | 0.00 | 0.00 | 0.00 | 60 | 1015.4 |
| 20260504185330 | 61 | 252 | 7.0 | 11.0 | 0.00 | 0.00 | 0.00 | 58 | 1015.3 |
| 20260504184317 | 61 | 235 | 7.0 | 13.0 | 0.00 | 0.00 | 0.00 | 61 | 1015.4 |
| 20260504183327 | 61 | 250 | 8.0 | 14.0 | 0.00 | 0.00 | 0.00 | 63 | 1015.4 |
| 20260504182312 | 61 | 260 | 6.0 | 13.0 | 0.00 | 0.00 | 0.00 | 62 | 1015.4 |
| 20260504181322 | 61 | 248 | 7.0 | 15.0 | 0.00 | 0.00 | 0.00 | 65 | 1015.3 |
| 20260504180320 | 61 | 246 | 8.0 | 14.0 | 0.00 | 0.00 | 0.00 | 65 | 1015.3 |
| 20260504175323 | 60 | 277 | 7.0 | 12.0 | 0.00 | 0.00 | 0.00 | 65 | 1015.3 |
| 20260504174339 | 60 | 262 | 6.0 | 12.0 | 0.00 | 0.00 | 0.00 | 67 | 1015.3 |
| 20260504173317 | 59 | 260 | 7.0 | 12.0 | 0.00 | 0.00 | 0.00 | 69 | 1015.3 |
| 20260504172337 | 58 | 276 | 8.0 | 14.0 | 0.00 | 0.00 | 0.00 | 70 | 1015.3 |
| 20260504171316 | 58 | 266 | 5.0 | 11.0 | 0.00 | 0.00 | 0.00 | 72 | 1015.3 |
| 20260504170322 | 58 | 246 | 7.0 | 12.0 | 0.00 | 0.00 | 0.00 | 71 | 1015.2 |
| 20260504160328 | 53 | 250 | 8.0 | 11.0 | 0.00 | 0.00 | 0.00 | 68 | 1015.3 |
| 20260504150333 | 51 | 345 | 4.0 | 9.0 | 0.00 | 0.00 | 0.00 | 72 | 1015.1 |
| 20260504141326 | 49 | 345 | 3.0 | 5.0 | 0.00 | 0.00 | 0.00 | 70 | 1015.1 |
| 20260504140325 | 49 | 345 | 1.0 | 4.0 | 0.00 | 0.00 | 0.00 | 70 | 1015.0 |
| 20260504130316 | 48 | 265 | 0.0 | 0.0 | 0.00 | 0.00 | 0.00 | 71 | 1014.6 |